Mountain Home, AR

10:56 AM CST on December 10, 2019 (GMT -0600)
Baxter County Regional

Weather History for KBPK - October, 2019

Change the Weather History Date:

Friday, October 18, 2019

  Actual Average (KFLP) Record (KFLP)
Temperature  
Mean Temperature 56 °F -  
Max Temperature 68 °F 69 °F 87 °F (2004)
Min Temperature 45 °F 46 °F 37 °F (2003)
Degree Days  
Heating Degree Days 8    
Growing Degree Days 6 (Base 50)    
Moisture  
Dew Point 44 °F    
Average Humidity 72    
Maximum Humidity 93    
Minimum Humidity 43    
Precipitation  
Precipitation 0.00 in - - ()
Sea Level Pressure  
Sea Level Pressure 29.92 in    
Wind  
Wind Speed 5 mph (SSE)    
Max Wind Speed 10 mph    
Max Gust Speed -    
Visibility 10 miles    
Events      
Averages and records for this station are not official NWS values.
T = Trace of Precipitation, MM = Missing Value Source: NWS Daily Summary

Daily Weather History Graph

Daily Weather History Graph

Search for Another Location

Airport or City:

Astronomy

Oct. 18, 2019 Rise Set
Actual Time 7:19 AM CDT 6:30 PM CDT
Civil Twilight 6:53 AM CDT 6:56 PM CDT
Nautical Twilight 6:23 AM CDT 7:25 PM CDT
Astronomical Twilight 5:53 AM CDT 7:55 PM CDT
Moon 9:53 PM CDT (10/18) 11:46 AM CDT (10/18)
Length of Visible Light 12h 02m
Length of Day
11h 10m
Waning Gibbous, 78% of the Moon is Illuminated
Oct 18
Waning Gibbous
Oct 21
Last Quarter
Oct 27
New
Nov 4
First Quarter
Nov 12
Full

Hourly Weather History & Observations

Time (CDT) Temp. Windchill Dew Point Humidity Pressure Visibility Wind Dir Wind Speed Gust Speed Precip Events Conditions
12:53 AM 48.0 °F - 45.0 °F 89% 29.96 in 10.0 mi Calm Calm - N/A   Clear
1:53 AM 48.0 °F - 45.0 °F 89% 29.96 in 10.0 mi Calm Calm - N/A   Clear
2:53 AM 48.0 °F - 45.0 °F 89% 29.96 in 10.0 mi South 5.8 mph - N/A   Clear
3:53 AM 48.0 °F - 44.1 °F 86% 29.96 in 10.0 mi SSE 5.8 mph - N/A   Clear
4:53 AM 46.9 °F - 43.0 °F 86% 29.96 in 10.0 mi South 3.5 mph - N/A   Clear
5:53 AM 45.0 °F 43.5 °F 43.0 °F 93% 29.97 in 10.0 mi ESE 3.5 mph - N/A   Clear
6:53 AM 45.0 °F 43.5 °F 42.1 °F 90% 29.99 in 10.0 mi ESE 3.5 mph - N/A   Clear
7:53 AM 46.0 °F 43.9 °F 44.1 °F 93% 29.99 in 10.0 mi SSE 4.6 mph - N/A   Clear
8:53 AM 51.1 °F - 45.0 °F 80% 29.99 in 10.0 mi SSE 5.8 mph - N/A   Clear
9:53 AM 55.0 °F - 46.0 °F 72% 30.00 in 10.0 mi SSE 8.1 mph - N/A   Clear
10:53 AM 57.9 °F - 46.0 °F 65% 29.99 in 10.0 mi South 9.2 mph - N/A   Unknown
11:53 AM 61.0 °F - 45.0 °F 56% 29.98 in 10.0 mi South 9.2 mph - N/A   Clear
12:53 PM 64.0 °F - 45.0 °F 50% 29.94 in 10.0 mi SSE 10.4 mph - N/A   Clear
1:53 PM 66.0 °F - 45.0 °F 47% 29.90 in 10.0 mi South 8.1 mph - N/A   Clear
3:53 PM 68.0 °F - 45.0 °F 43% 29.85 in 10.0 mi SSE 9.2 mph - N/A   Clear
4:53 PM 66.9 °F - 45.0 °F 45% 29.83 in 10.0 mi SSE 9.2 mph - N/A   Clear
7:53 PM 59.0 °F - 44.1 °F 58% 29.83 in 10.0 mi SSE 10.4 mph - N/A   Clear
8:53 PM 55.9 °F - 44.1 °F 64% 29.83 in 10.0 mi SE 6.9 mph - N/A   Clear
9:53 PM 54.0 °F - 44.1 °F 69% 29.83 in 10.0 mi SSE 4.6 mph - N/A   Clear
10:53 PM 51.1 °F - 44.1 °F 77% 29.83 in 10.0 mi SE 5.8 mph - N/A   Clear
11:53 PM 52.0 °F - 44.1 °F 74% 29.81 in 10.0 mi SSE 4.6 mph - N/A   Clear